TimePDT,TemperatureF,Dew PointF,Humidity,Sea Level PressureIn,VisibilityMPH,Wind Direction,Wind SpeedMPH,Gust SpeedMPH,PrecipitationIn,Events,Conditions,WindDirDegrees,DateUTC
12:56 AM,55.0,41.0,59,30.04,10.0,Calm,Calm,-,N/A,,Clear,0,2014-04-15 07:56:00
1:56 AM,50.0,43.0,77,30.02,10.0,ESE,3.5,-,N/A,,Clear,110,2014-04-15 08:56:00
2:56 AM,50.0,41.0,71,30.02,10.0,Calm,Calm,-,N/A,,Clear,0,2014-04-15 09:56:00
3:56 AM,46.9,42.1,83,30.01,10.0,Calm,Calm,-,N/A,,Clear,0,2014-04-15 10:56:00
4:56 AM,48.9,41.0,74,30.01,10.0,Calm,Calm,-,N/A,,Clear,0,2014-04-15 11:56:00
5:56 AM,46.0,41.0,83,30.01,10.0,Calm,Calm,-,N/A,,Clear,0,2014-04-15 12:56:00
6:56 AM,46.0,39.9,79,30.02,10.0,Calm,Calm,-,N/A,,Clear,0,2014-04-15 13:56:00
7:56 AM,48.9,43.0,80,30.01,10.0,Calm,Calm,-,N/A,,Clear,0,2014-04-15 14:56:00
8:56 AM,55.9,46.0,69,30.01,10.0,Calm,Calm,-,N/A,,Clear,0,2014-04-15 15:56:00
9:56 AM,61.0,46.9,60,30.01,10.0,WNW,3.5,-,N/A,,Clear,300,2014-04-15 16:56:00
10:56 AM,66.0,46.9,50,30.00,10.0,Calm,Calm,-,N/A,,Clear,0,2014-04-15 17:56:00
11:56 AM,71.1,48.0,44,29.98,10.0,WNW,4.6,-,N/A,,Clear,300,2014-04-15 18:56:00
12:56 PM,75.9,46.9,36,29.95,10.0,Variable,4.6,-,N/A,,Clear,0,2014-04-15 19:56:00
1:56 PM,79.0,39.9,25,29.93,10.0,NNW,12.7,-,0.00,,Clear,340,2014-04-15 20:56:00
2:56 PM,80.1,41.0,25,29.91,10.0,NNW,9.2,-,0.00,,Clear,340,2014-04-15 21:56:00
3:56 PM,81.0,41.0,24,29.89,10.0,North,8.1,-,N/A,,Clear,360,2014-04-15 22:56:00
4:56 PM,78.1,42.1,28,29.88,10.0,NNW,10.4,-,N/A,,Clear,330,2014-04-15 23:56:00
5:56 PM,73.9,41.0,30,29.90,10.0,North,8.1,-,N/A,,Clear,10,2014-04-16 00:56:00
6:56 PM,71.1,39.0,31,29.90,10.0,NNE,6.9,-,N/A,,Clear,30,2014-04-16 01:56:00
7:56 PM,66.9,41.0,39,29.91,10.0,NNE,6.9,-,N/A,,Clear,30,2014-04-16 02:56:00
8:56 PM,64.9,39.9,40,29.93,10.0,NNE,8.1,-,N/A,,Clear,20,2014-04-16 03:56:00
9:56 PM,60.1,42.1,51,29.94,10.0,Calm,Calm,-,N/A,,Clear,0,2014-04-16 04:56:00
10:56 PM,57.0,42.1,57,29.92,10.0,Calm,Calm,-,N/A,,Clear,0,2014-04-16 05:56:00
11:56 PM,54.0,42.1,64,29.93,10.0,SE,4.6,-,N/A,,Clear,140,2014-04-16 06:56:00